Location: Unspecified
(0.0000°N, 0.0000°E)
Time: 18:41:21
(UTC+00:00)

Vanguard 1 - All Passes

Search period start: 18 April 2014 00:00
Search period end: 28 April 2014 00:00
Orbit: 648 x 3839 km, 34.3° (Epoch: 16 April)

Date Brightness Start Highest point End Pass type
(mag) Time Alt. Az. Time Alt. Az. Time Alt. Az.
18 Apr - 07:18:10 10° SW 07:23:45 65° SE 07:33:36 10° ENE daylight
18 Apr - 09:38:47 10° W 09:46:21 34° NNW 09:59:13 10° NE daylight
18 Apr - 12:05:26 10° NW 12:14:37 18° N 12:26:47 10° NNE daylight
18 Apr - 14:33:58 10° NNW 14:48:39 21° NNE 15:04:20 10° ENE daylight
18 Apr - 16:59:29 10° NW 17:21:09 42° NNE 17:37:46 10° E daylight
18 Apr - 19:26:19 10° NW 19:48:37 88° SW 20:01:28 10° SE visible
18 Apr - 21:58:51 10° W 22:11:41 28° SW 22:19:50 10° SSE visible
19 Apr - 05:23:43 10° SSE 05:25:21 11° SE 05:27:08 10° ESE visible
19 Apr - 07:39:30 10° WSW 07:45:19 81° NW 07:55:50 10° NE daylight
19 Apr - 10:01:33 10° WNW 10:09:03 26° NNW 10:20:50 10° NNE daylight
19 Apr - 12:29:27 10° NW 12:38:41 17° N 12:50:19 10° NNE daylight
19 Apr - 14:56:19 10° NNW 15:12:51 25° NNE 15:29:43 10° ENE daylight
19 Apr - 17:21:19 10° NW 17:44:05 52° NNE 18:00:38 10° ESE daylight
19 Apr - 19:48:58 10° WNW 20:10:31 70° SW 20:22:55 10° SE visible
19 Apr - 22:24:05 10° W 22:33:26 19° SW 22:40:04 10° S visible
20 Apr - 05:43:01 10° S 05:46:46 21° SE 05:51:39 10° E daylight
20 Apr - 08:01:11 10° WSW 08:07:08 54° NNW 08:17:43 10° NE daylight
20 Apr - 10:24:49 10° WNW 10:32:02 20° NNW 10:42:29 10° NNE daylight
20 Apr - 12:53:06 10° NNW 13:02:59 16° N 13:15:01 10° NE daylight
20 Apr - 15:18:18 10° NNW 15:36:42 30° NNE 15:54:33 10° E daylight
20 Apr - 17:43:13 10° NW 18:06:44 65° NE 18:23:02 10° ESE visible
20 Apr - 20:12:04 10° WNW 20:32:17 54° SW 20:44:07 10° SE visible
20 Apr - 22:50:59 10° WSW 22:55:28 12° SW 22:59:12 10° SSW visible
21 Apr - 06:03:36 10° SSW 06:08:06 38° SE 06:14:41 10° ENE daylight
21 Apr - 08:23:14 10° W 08:29:13 36° NNW 08:39:20 10° NE daylight
21 Apr - 10:48:36 10° NW 10:55:19 16° N 11:04:19 10° NNE daylight
21 Apr - 13:16:04 10° NNW 13:27:20 18° NNE 13:40:45 10° NE daylight
21 Apr - 15:40:04 10° NNW 16:00:09 37° NNE 16:18:43 10° E daylight
21 Apr - 18:05:15 10° NW 18:29:08 79° NE 18:45:05 10° ESE visible
21 Apr - 20:35:43 10° WNW 20:54:01 41° SW 21:05:07 10° SSE visible
22 Apr - 06:24:39 10° SW 06:29:28 70° SE 06:37:05 10° ENE daylight
22 Apr - 08:45:44 10° WNW 08:51:35 26° NNW 09:00:44 10° NNE daylight
22 Apr - 11:12:43 10° NNW 11:18:55 14° N 11:26:43 10° NNE daylight
22 Apr - 13:38:23 10° NNW 13:51:32 21° NNE 14:06:53 10° ENE daylight
22 Apr - 16:01:45 10° NW 16:23:16 45° NNE 16:42:14 10° E daylight
22 Apr - 18:27:32 10° NW 18:51:19 85° SW 19:06:49 10° SE visible
22 Apr - 21:00:05 10° W 21:15:49 31° SW 21:25:55 10° SSE visible
23 Apr - 04:30:00 10° SSE 04:31:04 11° SE 04:32:10 10° SE visible
23 Apr - 06:46:06 10° WSW 06:51:02 69° NW 06:59:03 10° NE daylight
23 Apr - 09:08:47 10° WNW 09:14:12 19° NNW 09:21:55 10° NNE daylight
23 Apr - 11:36:38 10° NNW 11:42:47 13° N 11:50:16 10° NNE daylight
23 Apr - 14:00:15 10° NNW 14:15:27 25° NNE 14:32:42 10° ENE daylight
23 Apr - 16:23:26 10° NW 16:46:05 56° NE 17:05:12 10° ESE daylight
23 Apr - 18:50:09 10° WNW 19:13:21 69° SW 19:28:18 10° SE visible
23 Apr - 21:25:22 10° W 21:37:49 22° SW 21:46:26 10° S visible
24 Apr - 04:49:12 10° SSW 04:52:36 21° SE 04:56:33 10° E visible
24 Apr - 07:07:55 10° W 07:12:50 41° NNW 07:20:38 10° NE daylight
24 Apr - 09:32:33 10° NW 09:37:06 14° N 09:42:56 10° NNE daylight
24 Apr - 11:59:43 10° NNW 12:06:50 14° N 12:15:27 10° NE daylight
24 Apr - 14:21:51 10° NNW 14:39:00 31° NNE 14:57:52 10° E daylight
24 Apr - 16:45:12 10° NW 17:08:40 68° NE 17:27:41 10° ESE daylight
24 Apr - 19:13:13 10° WNW 19:35:18 55° SW 19:49:35 10° SE visible
24 Apr - 21:51:49 10° WSW 22:00:06 15° SW 22:06:27 10° S visible
25 Apr - 05:09:52 10° SSW 05:14:01 40° SE 05:19:17 10° ENE visible
25 Apr - 07:30:11 10° W 07:34:53 27° NNW 07:41:54 10° NNE daylight
25 Apr - 09:57:19 10° NNW 10:00:15 11° N 10:03:38 10° N daylight
25 Apr - 12:21:54 10° NNW 12:30:52 16° NNE 12:41:53 10° NE daylight
25 Apr - 14:43:21 10° NNW 15:02:11 38° NNE 15:22:15 10° E daylight
25 Apr - 17:07:09 10° NW 17:31:04 82° NE 17:49:47 10° SE daylight
25 Apr - 19:36:52 10° WNW 19:57:16 43° SW 20:10:41 10° SSE visible
25 Apr - 22:21:30 10° SW 22:22:43 10° SSW 22:23:53 10° SSW visible
26 Apr - 05:31:02 10° SW 05:35:27 79° SE 05:41:25 10° ENE visible
26 Apr - 07:53:04 10° WNW 07:57:12 18° NNW 08:02:48 10° NNE daylight
26 Apr - 12:43:32 10° NNW 12:54:42 19° NNE 13:08:36 10° ENE daylight
26 Apr - 15:04:49 10° NW 15:25:04 47° NE 15:45:56 10° ESE daylight
26 Apr - 17:29:20 10° NW 17:53:19 83° SW 18:11:36 10° SE daylight
26 Apr - 20:01:13 10° W 20:19:21 33° SW 20:31:38 10° SSE visible
27 Apr - 03:35:01 10° S 03:36:52 12° SSE 03:38:42 10° ESE visible
27 Apr - 05:52:38 10° WSW 05:57:01 55° NNW 06:03:05 10° NE daylight
27 Apr - 08:16:59 10° NW 08:19:44 12° NNW 08:23:01 10° N daylight
27 Apr - 13:04:54 10° NNW 13:18:15 24° NNE 13:34:52 10° ENE daylight
27 Apr - 15:26:21 10° NW 15:47:43 58° NE 16:09:01 10° ESE daylight
27 Apr - 17:51:52 10° WNW 18:15:29 68° SW 18:33:10 10° SE visible
27 Apr - 20:26:27 10° W 20:41:39 25° SW 20:52:24 10° SSE visible
